SBIRS GEO-6 (USA 336)

Last updated on Wed Oct 29 2025 00:02:50 GMT+0000 (Coordinated Universal Time)

1 53355U 22092A 25301.57102980 -.00000285 00000+0 00000+0 0 9993 2 53355 3.6718 314.2221 0001893 258.9335 168.6090 1.00271745 11918
UTC large
Height (km)
Speed (km/s)
/
Latitude / Longitude
Inclination (degrees)
Orbital Period (minutes)
Azimuth
Elevation
Range (km)
Doppler Factor

Next 0 passes for location: London (51.5072 / 0.1276)

Sorry there are no passes over London.